Regional Weather Roundup
Issued by NWS New Orleans/Baton Rouge, LA

Home | Current Version | Previous Version | Text Only | Print | Product List | Glossary On
Versions: 1 2 3 4 5 6 7 8 9 10 11 12 13 14 15 16 17 18 19 20 21 22 23 24 25 26 27 28 29
000
ASUS44 KLIX 010311
RWRLIX
NEW ORLEANS REGIONAL WEATHER ROUNDUP
NATIONAL WEATHER SERVICE NEW ORLEANS LA
1000 PM CDT WED AUG 31 2016

NOTE: "FAIR" INDICATES FEW OR NO CLOUDS BELOW 12,000 FEET WITH NO
      SIGNIFICANT WEATHER AND/OR OBSTRUCTIONS TO VISIBILITY.
      SKY/WX - SKY CONDITION AND SIGNIFICANT WEATHER.
      TMP - AIR TEMPERATURE.     DP    - DEWPOINT TEMPERATURE.
      RH  - RELATIVE HUMIDITY.   PRES  - PRESSURE.
      HI  - HEAT INDEX.          WCI   - WIND CHILL INDEX.

*  THESE STATIONS ARE NOT NWS OR FAA STATIONS AND ARE NOT UNDER
   NWS QUALITY CONTROL.

LAZ038-040-048-061>063-065>067-069-010400-
SOUTHEAST LOUISIANA

CITY           SKY/WX    TMP DP  RH WIND       PRES   REMARKS
N.O. AUDUBON     N/A     86  76  71 MISG        N/A  HX  96
N.O. INTL ARPT PTCLDY    88  74  63 E3        29.85R HX  96
N.O. LAKEFRONT CLEAR     87  75  67 E6        29.85R HX  96
N.O. DOWNTOWN*   N/A     87  75  67 CALM      29.86  HX  96
RESERVE*         N/A     84  77  79 CALM      29.86R
SLIDELL        CLEAR     80  77  90 CALM      29.85R
BATON ROUGE    CLEAR     82  75  79 N5        29.87R
BOOTHVILLE     NOT AVBL
BELLE CHASSE   PTCLDY    78  77  96 CALM      29.85R
BOGALUSA*        N/A     80  74  82 N3        29.88R
GALLIANO*      CLEAR    N/A N/A N/A CALM      29.84R
NEW ROADS*       N/A     81  76  86 MISG      29.88R
GONZALES*        N/A     79  77  94 CALM      29.86R
HAMMOND*       CLEAR     79  73  83 N3        29.86R
HOUMA*         MOCLDY    78  76  96 CALM      29.85R
PORT FOURCHON* CLEAR     84  77  79 NE7       29.84R

$$

MSZ070-080>082-010400-
SOUTHERN MISSISSIPPI

CITY           SKY/WX    TMP DP  RH WIND       PRES   REMARKS
MCCOMB         CLEAR     83  72  69 N5        29.89R
GULFPORT       CLEAR     83  72  69 NE5       29.84R
BILOXI         CLOUDY    83  73  71 NE3       29.85R
PASCAGOULA     CLOUDY    80  78  94 CALM      29.85R

$$

COASTAL OBSERVATIONS
LAKE AND NEARSHORE STATIONS

STATION/POSITION TIME  TEMP    WIND        PRES    WAVE
                       AIR SEA DIR/SP/G            HT/PER
                 (UTC) (F)     (DEG/KT/KT) (MB)    (FT/S)
PASCAGOULA       0200   86                 1010.0
WAVELAND YACHT   0200   86 87              1010.6
GRAND ISLE       0200   84 86              1010.0
SOUTHWEST PASS   0200           50/ 15/ 20   N/A
NEW CANAL        0200   86 87              1009.5
SHELL BEACH      0200   86 87              1010.4

OFFSHORE STATIONS

STATION/POSITION TIME  TEMP    WIND        PRES    WAVE
                       AIR SEA DIR/SP/G            HT/PER
                 (UTC) (F)     (DEG/KT/KT) (MB)    (FT/S)
64 S DAUPHIN ISL 0200   84 86   70/ 16/ 19 1009.1

$$





USA.gov is the U.S. government's official web portal to all federal, state and local government web resources and services.